Location: Unspecified
(0.0000°N, 0.0000°E)
Time: 16:24:18
(UTC+00:00)

NUDT-PHONESAT - Visible Passes

Search period start: 22 April 2018 00:00
Search period end: 02 May 2018 00:00
Orbit: 494 x 511 km, 97.4° (Epoch: 22 April)

Date Brightness Start Highest point End Pass type
(mag) Time Alt. Az. Time Alt. Az. Time Alt. Az.
22 Apr ? 05:26:40 10° NE 05:29:35 23° ESE 05:32:31 10° SSE visible
22 Apr ? 18:51:54 10° SW 18:53:44 13° WSW 18:55:34 10° WNW visible
23 Apr ? 05:09:29 10° E 05:10:47 12° ESE 05:12:05 10° ESE visible
23 Apr ? 18:31:46 10° SSW 18:34:55 26° W 18:38:03 10° NW visible
27 Apr ? 05:26:06 10° NE 05:28:58 22° E 05:31:51 10° SSE visible
27 Apr ? 18:51:11 10° SW 18:53:06 14° WSW 18:55:02 10° WNW visible
28 Apr ? 05:08:59 10° E 05:10:08 11° ESE 05:11:18 10° ESE visible
28 Apr ? 18:31:06 10° SSW 18:34:16 26° WSW 18:37:26 10° NW visible
